CZ-2D R/B

Last updated on Sun Oct 19 2025 00:02:15 GMT+0000 (Coordinated Universal Time)

1 28738U 05024B 25291.24912521 .00037374 00000+0 67855-3 0 9991 2 28738 97.3695 297.3771 0006037 161.2581 198.8894 15.49466628117653
UTC large
Height (km)
Speed (km/s)
/
Latitude / Longitude
Inclination (degrees)
Orbital Period (minutes)
Azimuth
Elevation
Range (km)
Doppler Factor

Next 0 passes for location: London (51.5072 / 0.1276)

Sorry there are no passes over London.